Welcome to the New NWS' Forecast!
Most changes are behind the scenes, but click here for differences you might notice.

Regional Weather Roundup (RWR)

Issued by Gray - Portland, ME (GYX)

                            
249 
ASUS41 KGYX 190910
RWRGYX
WEATHER ROUNDUP FOR MAINE AND NEW HAMPSHIRE
NATIONAL WEATHER SERVICE GRAY ME
500 AM EDT SUN AUG 19 2018

MEZ002-005-006-010-012-015-018-020-021-024-026-027-029-191000-
MAINE
  
CITY           SKY/WX    TMP DP  RH WIND       PRES   REMARKS
PORTLAND       FAIR      60  58  92 CALM      29.98R                  
SANFORD        FAIR      59  58  96 NE3       29.98R                  
BAR HARBOR     FAIR      57  57 100 N5        29.97R                  
WISCASSET      FAIR      57  57 100 CALM      29.99R                  
ROCKLAND       FAIR      63  60  90 N7        29.96R                  
FRYEBURG       FAIR      52  51  97 CALM      30.01R                  
LEWISTONAUBURN FAIR      56  56 100 N5        29.99R                  
AUGUSTA        FAIR      58  56  93 N5        29.99R                  
WATERVILLE     FAIR      58  55  90 N7        29.97R                  
BANGOR         FAIR      56  55  97 N3        30.00R                  
GREENVILLE       N/A     57  56  96 NW5       30.02R                  
MILLINOCKET    MOCLDY    55  53  93 CALM      30.03R                  
HOULTON        FOG       49  49 100 CALM      30.01R VSB 3/4          
PRESQUE ISLE   FAIR      49  49 100 CALM      30.05R                  
FRENCHVILLE    FAIR      53  46  77 N6        30.05R                  
CARIBOU        FAIR      54  49  83 N6        30.03R                  
$$

NHZ002-005-008-009-011-012-014-191000-
NEW HAMPSHIRE
  
CITY           SKY/WX    TMP DP  RH WIND       PRES   REMARKS
PORTSMOUTH     PTCLDY    64  60  87 N7        29.95R                  
ROCHESTER      FAIR      60  59  96 N5        29.97R                  
NASHUA         FAIR      64  64 100 NW5       29.97R                  
MANCHESTER     FAIR      66  61  84 N7        29.95R                  
CONCORD        FAIR      61  58  90 CALM      29.98R                  
LACONIA        FAIR      58  57  97 CALM      30.00R                  
PLYMOUTH       CLOUDY    59  58  96 CALM      30.01R                  
BERLIN         FOG       54  54 100 E3        30.04R VSB 1/4          
WHITEFIELD     FOG       50  50 100 CALM      30.03R VSB 1/4          
JAFFREY        CLOUDY    64  62  93 CALM      29.99S                  
KEENE          FAIR     N/A N/A N/A CALM      29.98R                  
LEBANON        FAIR      62  59  90 N5        30.00R                  
MT WASHINGTON  FOG       43  43 100 E31         N/A  VSB 1/16         
$$

VTZ005-007-008-191000-
VERMONT
  
CITY           SKY/WX    TMP DP  RH WIND       PRES   REMARKS
ST JOHNSBURY     N/A     54  54 100 MISG      30.01R                  
MONTPELIER     FOG       57  57 100 CALM      30.06R VSB 1/4          
BURLINGTON     FOG       59  58  96 CALM      30.00R VSB 1/2          
$$

MAZ007-012-024-CTZ003-RIZ002-NYZ038-NYZ072-191000-
SOUTHERN NEW ENGLAND AND NY
  
CITY           SKY/WX    TMP DP  RH WIND       PRES   REMARKS
BOSTON         CLOUDY    68  61  78 NE12      29.94R                  
WORCESTER      CLOUDY    62  60  93 NE7       29.96R                  
NANTUCKET      CLOUDY    67  66  97 NE15      29.87R                  
PROVIDENCE     CLOUDY    66  63  90 NE13      29.92R                  
HARTFORD       LGT RAIN  65  64  97 N8        29.94R                  
ALBANY         CLOUDY    68  61  78 N5        29.96R                  
NEW YORK CITY  CLOUDY    72  66  81 NE18      29.87S                  
$$

ANZ081-ANZ082-ANZ150-NHZ014-MEZ023>029-191000-
COASTAL MARINE OBSERVATIONS
  
STATION/POSITION TIME  TEMP    WIND        PRES    WAVE
                       AIR SEA DIR/SP/G            HT/PER
                 (UTC) (F)     (DEG/KT/KT) (MB)    (FT/S)
MOUNT DESERT ROC 0900   58     360/ 14/ 16 1014.2R
MATINICUS ROCK   0800   60      10/ 14/ 15 1013.3R
ISLE OF SHOALS   0800   66      20/ 14/ 16 1013.2F
JEFFREYS LEDGE   0836      67                N/A     4/ 6
$$

.............KEY..............
   WCI - WIND CHILL
   TC  - TEMPERATURE IN CELSIUS
   VSB - VISIBILITY IN MILES
   HX  - HEAT INDEX
   FAIR- INDICATES FEW OR NO CLOUDS BELOW 12,000 FT, WITH NO 
         SIGNIFICANT WEATHER AND/OR OBSTRUCTIONS TO VISIBILITY.